Вернуться в каталог

TITAN 3C TRANSTAGE DEB

АктивенMEO
NORAD 38702·DEBRIS·🇺🇸 United States

Запущен Sep 26, 1968 с Cape Canaveral Space Force Station

Loading…

Ближайшие Пролёты (ближайшие 24 часа)

TLE

СвежийSource: Space-Track

Эпоха: Sep 13, 2026, 15:18 UTC

1 38702U 68081AC  26256.63809173 -.00000003  00000-0  00000-0 0  9995
2 38702   1.3131  52.2025 0222295  37.8872 324.5559  1.02228046 70627

Отслеживайте TITAN 3C TRANSTAGE DEB в реальном времени с AllMySat

Download on the App Store